Location: Unspecified
(40.7945°N, 0.0000°E)
Time: 13:26:00
(UTC+00:00)

Transit 4A - Visible Passes

Search period start: 23 January 2021 00:00
Search period end: 02 February 2021 00:00
Orbit: 864 x 980 km, 66.8° (Epoch: 23 January)

Date Brightness Start Highest point End Pass type
(mag) Time Alt. Az. Time Alt. Az. Time Alt. Az.
23 Jan 8.7 04:18:24 43° SE 04:18:24 43° SE 04:22:17 10° SE visible
23 Jan 9.3 06:01:59 16° WSW 06:01:59 16° WSW 06:05:24 10° SW visible
23 Jan 9.4 17:32:28 10° SE 17:36:34 18° ESE 17:40:41 10° ENE visible
23 Jan 8.1 19:15:50 10° SW 19:22:13 77° WNW 19:25:11 34° NNE visible
23 Jan 10.3 21:05:33 10° W 21:08:45 17° NW 21:08:45 17° NW visible
24 Jan 9.1 04:28:37 31° SSE 04:28:37 31° SSE 04:31:33 10° SSE visible
24 Jan 9.0 17:40:23 10° SSE 17:45:37 27° ESE 17:50:51 10° NE visible
24 Jan 8.6 19:25:23 10° SW 19:31:38 54° NW 19:35:08 26° N visible
24 Jan 10.5 21:16:37 10° WNW 21:18:42 13° NW 21:18:42 13° NW visible
25 Jan 9.6 04:38:53 19° S 04:38:53 19° S 04:40:32 10° S visible
25 Jan 8.5 17:48:51 10° S 17:54:44 40° ESE 18:00:38 10° NE visible
25 Jan 9.2 19:35:11 10° WSW 19:41:07 38° NW 19:44:59 20° N visible
26 Jan 10.1 04:49:10 10° S 04:49:10 10° S 04:49:10 10° S visible
26 Jan 8.1 17:57:39 10° SSW 18:03:55 59° ESE 18:10:12 10° NE visible
26 Jan 9.7 19:45:17 10° WSW 19:50:42 28° NW 19:54:44 16° N visible
27 Jan 8.0 18:06:46 10° SSW 18:13:11 86° ESE 18:19:36 10° NNE visible
27 Jan 10.1 19:55:39 10° W 20:00:22 21° NW 20:04:23 12° N visible
28 Jan 8.3 18:16:10 10° SW 18:22:32 68° WNW 18:28:54 10° NNE visible
28 Jan 10.4 20:06:24 10° WNW 20:10:08 16° NW 20:13:50 10° N visible
29 Jan 8.9 18:25:49 10° SW 18:31:58 48° NW 18:38:07 10° NNE visible
29 Jan 10.5 20:17:43 10° NW 20:20:00 12° NNW 20:22:15 10° N visible
30 Jan 9.4 18:35:43 10° WSW 18:41:29 34° NW 18:47:14 10° NNE visible
31 Jan 9.9 18:45:54 10° W 18:51:05 25° NW 18:56:16 10° N visible
01 Feb 10.2 18:56:25 10° W 19:00:48 19° NW 19:05:09 10° N visible
